Regional Weather Roundup
Issued by NWS

Home | Current Version | Previous Version | Text Only | Print | Product List | Glossary On
Versions: 1 2 3 4 5 6 7 8 9 10 11 12 13 14 15 16 17 18 19 20 21 22 23 24 25 26 27 28 29 30 31 32 33 34 35 36 37 38 39 40 41 42 43 44 45 46 47 48 49 50
000
ASUS44 KFWD 080515
RWRTX
NORTH TEXAS HOURLY WEATHER ROUNDUP
NATIONAL WEATHER SERVICE FORT WORTH TX
1100 PM CST SUN FEB 07 2016

NOTE: "FAIR" INDICATES FEW OR NO CLOUDS BELOW 12,000 FEET WITH NO
SIGNIFICANT WEATHER AND/OR OBSTRUCTIONS TO VISIBILITY.

TXZ118-119-080600-
DALLAS/FORT WORTH METROPLEX

CITY           SKY/WX    TMP DP  RH WIND       PRES   REMARKS
DFW AIRPORT    PTCLDY    49  30  48 N12       30.25R
DALLAS LOVE    CLEAR     49  32  52 N8        30.25R
FTW MEACHAM    CLEAR     54  27  35 N15       30.26R
DAL-EXECUTIVE  CLEAR     49  32  52 N10       30.24R
FTW-ALLIANCE   PTCLDY    49  29  46 N12       30.27R
FTW-NAS-JRB    PTCLDY    51  30  44 N12       30.27R
FTW-SPINKS     CLEAR     44  32  62 N7        30.27R WCI  40
ARLINGTON      PTCLDY    52  31  44 NW13      30.25R
GRAND PRAIRIE  PTCLDY    52  30  43 NW6       30.27R
ADDISON        CLEAR     49  34  54 N8        30.27R
MESQUITE       PTCLDY    47  32  56 N5        30.24R
LANCASTER      PTCLDY    45  30  55 NW7       30.24R
$$

TXZ091>094-102>105-117-120-121-131>134-080600-
NORTH CENTRAL TEXAS

CITY           SKY/WX    TMP DP  RH WIND       PRES   REMARKS
SHRMAN/DENISON PTCLDY    43  30  59 W6        30.27R WCI  40
GAINESVILLE    PTCLDY    47  27  46 N12       30.30R
BOWIE          CLEAR     45  27  48 NW9       30.30S
BRIDGEPORT     CLEAR     49  30  48 N14       30.32R
DECATUR        CLEAR     48  25  40 N9G18     30.29R
DENTON         PTCLDY    47  29  49 N10       30.27R
MCKINNEY       CLEAR     46  31  55 N8        30.25R
GREENVILLE     PTCLDY    45  32  61 NW6       30.23R
ROCKWALL       PTCLDY    46  34  62 N6        30.23R
TERRELL        PTCLDY    49  33  54 N6        30.23R
WAXAHACHIE     CLEAR     49  35  59 N12       30.25R
CLEBURNE         N/A     45  30  57 N7        30.26R
GRANBURY       CLEAR     46  30  54 NW6       30.28R
$$

TXZ083>090-098>101-113>116-127>130-139>142-154-155-080600-
WESTERN NORTH TEXAS

CITY           SKY/WX    TMP DP  RH WIND       PRES   REMARKS
WICHITA FALLS  CLEAR     42  24  49 N14       30.34R WCI  35
WF-KICKAPOO    CLEAR     49  22  33 N14G21    30.35R
VERNON         CLEAR     45   8  22 N7        30.38R
ABILENE        CLOUDY    43  26  51 N8        30.32R WCI  38
ABILENE-DYESS  CLOUDY    42  27  56 N7        30.32R WCI  37
BRECKENRIDGE   CLEAR     47  27  46 N9        30.32R
GRAHAM         CLEAR     46  29  52 N9        30.33R
MINERAL WELLS  PTCLDY    46  29  51 N12       30.28R
STEPHENVILLE   CLEAR     49  28  45 N12       30.28R
COMANCHE       CLEAR     46  30  52 N12       30.27R
BROWNWOOD      CLEAR     50  27  40 N13G20    30.27R
COLEMAN        CLOUDY    49  27  41 N18       30.28R
$$

TXZ143>147-156>162-174-175-080600-
CENTRAL TEXAS

CITY           SKY/WX    TMP DP  RH WIND       PRES   REMARKS
WACO           CLEAR     47  35  63 N10       30.21R
WACO-TSTC      CLEAR     45  36  70 N3        30.21R
WACO-MCGREGOR  CLEAR     45  34  65 NW8       30.22R
HILLSBORO      CLEAR     41  32  70 N7        30.23R WCI  36
CORSICANA      CLEAR     49  34  56 NW8       30.22R
MEXIA          CLEAR     47  32  56 NW7       30.20R
HEARNE         CLEAR     41  34  77 CALM      30.19R
CAMERON        CLEAR     48  34  57 CALM      30.18R
TEMPLE         CLEAR     45  33  63 N8        30.20R
KILLEEN        CLEAR     44  33  64 N13       30.18R WCI  38
KILLEEN-SKYLRK PTCLDY    48  34  58 N7        30.20R
FORT HOOD      PTCLDY    49  33  55 N10       30.17R
GATESVILLE     CLEAR     46  34  61 NW5       30.24R
HAMILTON       CLEAR     48  30  50 N9        30.24R
LAMPASAS       CLEAR     51  32  48 N8        30.20R
$$

TXZ095>097-106>112-122>126-135>138-148>153-164>167-080600-
EAST TEXAS

CITY           SKY/WX    TMP DP  RH WIND       PRES   REMARKS
PARIS          PTCLDY    48  27  43 NW13      30.20R
SULPHUR SPRNGS CLEAR     47  37  66 CALM      30.23R
MOUNT PLEASANT CLEAR     49  33  54 W8        30.20R
GILMER         CLEAR     52  34  49 W6        30.18R
MINEOLA        PTCLDY    48  34  57 SW3       30.21R
TYLER          PTCLDY    48  34  58 NW7       30.19R
LONGVIEW       CLEAR     45  33  63 NW7       30.16R
MARSHALL       CLEAR     50  34  54 W6        30.17S
ATHENS         CLEAR     39  34  81 CALM      30.20R
PALESTINE      PTCLDY    45  35  68 CALM      30.20S
JACKSONVILLE   CLEAR     53  34  48 NW7       30.19S
HENDERSON      PTCLDY    39  34  83 CALM      30.18S
CENTER         FAIR      40  37  86 CALM      30.16R
NACOGDOCHES    CLEAR     37  32  81 CALM      30.17S
LUFKIN         CLEAR     39  36  89 CALM      30.19R
$$

SUPPLEMENTAL OBSERVATIONS (CENTRAL)

CITY           SKY/WX    TMP DP  RH WIND       PRES   REMARKS
LAKE TEXOMA      N/A     50  32  50 NW14        N/A
CADDO GRASSLND   N/A     46  28  49 N5          N/A
PAT MAYSE LAKE   N/A     46  27  46 W8          N/A
ATHENS           N/A     45  36  70 NW1         N/A
MCGREGOR         N/A     43  34  70 N2          N/A
$$

SUPPLEMENTAL OBSERVATIONS (WEST)

CITY           SKY/WX    TMP DP  RH WIND       PRES   REMARKS
MILLERS CREEK    N/A     46  23  39 N10         N/A
LBJ GRASSLAND    N/A     48  27  43 N10G18      N/A
HAMBY            N/A     34  25  69 NE1         N/A
IVIE RESERVOIR   N/A     52  28  40 N12         N/A
COLORADO BEND    N/A     48  25  40 NE5         N/A
$$

SUPPLEMENTAL OBSERVATIONS (EAST)

CITY           SKY/WX    TMP DP  RH WIND       PRES   REMARKS
CLARKSVILLE      N/A     45  32  61 NW5         N/A
CADDO LAKE       N/A     37  32  81 CALM        N/A
GILMER           N/A     54  34  47 NW7         N/A
HENDERSON        N/A     39  32  75 W1          N/A
LUFKIN           N/A     39  36  87 MISG        N/A
N SABINE NF      N/A     37  34  87 MISG        N/A
S SABINE NF      N/A     39  36  87 S2          N/A
$$

SUPPLEMENTAL OBSERVATIONS ARE A COLLECTION OF AUTOMATED INSTRUMENTS
THAT ARE MAINTAINED BY A VARIETY OF FEDERAL AND STATE AGENCIES.
CERTAIN ELEMENTS...SUCH AS HUMIDITY VALUES AND SUSTAINED WIND
SPEEDS...MAY BE APPROXIMATED.





USA.gov is the U.S. government's official web portal to all federal, state and local government web resources and services.